Curtin Aero, Australia

4:56 PM AWST on January 18, 2017 (GMT +0800)
Curtin

Weather History for YCIN - March, 2013

Change the Weather History Date:

Saturday, March 23, 2013

  Actual Average Record
Temperature  
Mean Temperature 88 °F -  
Max Temperature 102 °F - - ()
Min Temperature 74 °F - - ()
Cooling Degree Days 23    
Growing Degree Days 38 (Base 50)    
Moisture  
Dew Point 75 °F    
Average Humidity 71    
Maximum Humidity 94    
Minimum Humidity 30    
Precipitation  
Precipitation 0.00 in - - ()
Sea Level Pressure  
Sea Level Pressure 29.80 in    
Wind  
Wind Speed 3 mph ()    
Max Wind Speed 7 mph    
Max Gust Speed -    
T = Trace of Precipitation, MM = Missing Value Source: Averaged Metar Reports

Daily Weather History Graph

Daily Weather History Graph

Search for Another Location

Airport or City:

Trip Planner

Search our weather history database for the weather conditions in past years. The results will help you decide how hot, cold, wet, or windy it might be!

Date:

Astronomy

Mar. 23, 2013 Rise Set
Actual Time 5:49 AM AWST 5:53 PM AWST
Civil Twilight 5:27 AM AWST 6:14 PM AWST
Nautical Twilight 5:02 AM AWST 6:40 PM AWST
Astronomical Twilight 4:36 AM AWST 7:05 PM AWST
Moon 2:50 PM AWST (3/23) 1:51 AM AWST (3/23)
Length of Visible Light 12h 47m
Length of Day
12h 04m
Waxing Gibbous, 81% of the Moon is Illuminated
Mar 23
Waxing Gibbous
Mar 27
Full
Apr 3
Last Quarter
Apr 10
New
Apr 18
First Quarter

Hourly Weather History & Observations

Time (AWST) Temp. Heat Index Dew Point Humidity Pressure Visibility Wind Dir Wind Speed Gust Speed Precip Events Conditions
12:00 AM 79 °F - 74 °F 81% 29.80 in - NW 3.5 mph - -  
12:00 AM 78.8 °F - 73.4 °F 83% 29.80 in - NW 3.5 mph - N/A   Unknown
1:00 AM 77.0 °F - 73.4 °F 89% 29.80 in - Calm Calm - N/A   Unknown
2:00 AM 78.8 °F - 77.0 °F 94% 29.80 in - SW 5.8 mph - N/A   Unknown
3:00 AM 77 °F - 75 °F 92% 29.78 in - SW 4.6 mph - -  
3:00 AM 77.0 °F - 75.2 °F 94% 29.77 in - SW 4.6 mph - N/A   Unknown
4:00 AM 77.0 °F - 75.2 °F 94% 29.80 in - SW 3.5 mph - N/A   Unknown
5:00 AM 75.2 °F - 73.4 °F 94% 29.80 in - Calm Calm - N/A   Unknown
6:00 AM 75 °F - 73 °F 92% 29.82 in - Calm Calm - -  
6:00 AM 75.2 °F - 73.4 °F 94% 29.83 in - Calm Calm - N/A   Unknown
7:00 AM 78.8 °F - 77.0 °F 94% 29.86 in - Calm Calm - N/A   Unknown
8:00 AM 84.2 °F 98.3 °F 80.6 °F 89% 29.86 in - WSW 4.6 mph - N/A   Unknown
9:00 AM 90 °F - 77 °F 59% 29.87 in - SW 5.8 mph - -  
9:00 AM 89.6 °F 102.2 °F 77.0 °F 66% 29.86 in - SW 5.8 mph - N/A   Unknown
10:00 AM 93.2 °F 102.4 °F 73.4 °F 52% 29.86 in - NNW 4.6 mph - N/A   Unknown
11:00 AM 96.8 °F 105.1 °F 71.6 °F 44% 29.86 in - WNW 5.8 mph - N/A   Unknown
12:00 PM 98 °F - 72 °F 34% 29.81 in - WSW 5.8 mph - -  
12:00 PM 98.6 °F 107.7 °F 71.6 °F 42% 29.83 in - WSW 5.8 mph - N/A   Unknown
1:00 PM 100.4 °F 111.9 °F 73.4 °F 42% 29.80 in - West 5.8 mph - N/A   Unknown
2:00 PM 100.4 °F 106.3 °F 68.0 °F 35% 29.77 in - SW 5.8 mph - N/A   Unknown
3:00 PM 100 °F - 71 °F 30% 29.74 in - SSW 5.8 mph - -  
3:00 PM 100.4 °F 109.3 °F 71.6 °F 39% 29.74 in - SSW 5.8 mph - N/A   Unknown
4:00 PM 100.4 °F 113.6 °F 75.2 °F 44% 29.74 in - West 6.9 mph - N/A   Unknown
5:00 PM 95.0 °F 109.7 °F 77.0 °F 56% 29.74 in - NW 5.8 mph - N/A   Unknown
6:00 PM 89 °F - 78 °F 63% 29.77 in - NW 5.8 mph - -  
6:00 PM 89.6 °F 104.7 °F 78.8 °F 70% 29.77 in - NW 5.8 mph - N/A   Unknown
7:00 PM 86.0 °F 99.3 °F 78.8 °F 79% 29.80 in - North 4.6 mph - N/A   Unknown
8:00 PM 86.0 °F 101.9 °F 80.6 °F 84% 29.83 in - North 3.5 mph - N/A   Unknown
9:00 PM 85 °F - 80 °F 79% 29.81 in - North 3.5 mph - -  
9:00 PM 84.2 °F 96.1 °F 78.8 °F 84% 29.83 in - North 3.5 mph - N/A   Unknown
10:00 PM 84.2 °F 96.1 °F 78.8 °F 84% 29.80 in - WNW 2.3 mph - N/A   Unknown
11:00 PM 82.4 °F 92.4 °F 78.8 °F 89% 29.80 in - Calm Calm - N/A   Unknown